Regional Weather Roundup
Issued by NWS

Home | Current Version | Previous Version | Graphics & Text | Print | Product List | Glossary On
Versions: 1 2 3 4 5 6 7 8 9 10 11 12 13 14 15 16 17 18 19 20 21 22 23 24 25 26 27 28 29 30 31 32 33 34 35 36 37 38 39 40 41 42 43 44 45 46 47 48 49 50
000
ASUS43 KLSX 031110
RWRMO

WEATHER SUMMARY FOR MISSOURI
NATIONAL WEATHER SERVICE SPRINGFIELD MO
600 AM CDT THU SEP 03 2015

NOTE: "FAIR" INDICATES FEW OR NO CLOUDS BELOW 12,000 FEET WITH NO
       SIGNIFICANT WEATHER AND/OR OBSTRUCTIONS TO VISIBILITY.
       CURRENT SKY AND/OR WEATHER CONDITIONS ARE NOT AVAILABLE FOR
       CHILLICOTHE AND FARMINGTON.

MOZ001>031-035>038-043-044-053-054-031200-
...NORTHERN AND WESTERN MISSOURI...

CITY           SKY/WX    TMP DP  RH WIND       PRES   REMARKS
KANSAS CTY INT PTCLDY    73  67  81 S12       29.94S
KANSAS C DTWN  CLEAR     75  67  76 S7        29.93S
LEE`S SUMMIT   CLEAR     73  67  81 S10       29.96S
ST JOSEPH      CLEAR     72  68  87 S6        29.91S
CHILLICOTHE      N/A     70  68  93 CALM      29.95S
KIRKSVILLE     PTCLDY    70  66  87 S5        29.97R

$$
MOZ066>068-077>081-088>096-101>105-031200-
...SOUTHWEST MISSOURI...

CITY           SKY/WX    TMP DP  RH WIND       PRES   REMARKS
SPRINGFIELD    CLEAR     70  66  87 S9        30.01S
JOPLIN         CLEAR     70  66  87 S6        29.99S

$$
MOZ032>034-039>042-045>050-055>058-069>072-031200-
...CENTRAL MISSOURI...

CITY           SKY/WX    TMP DP  RH WIND       PRES   REMARKS
COLUMBIA       CLOUDY    71  68  90 S6        29.99R
JEFFERSON CITY CLOUDY    72  68  87 SE3       29.98R
ROLLA          PTCLDY    68  66  93 S7        30.00F
SEDALIA        MOCLDY    73  67  81 S7        29.98S
WHITEMAN AFB   PTCLDY    70  68  92 SW7       29.95S
WARRENSBURG    CLEAR     70  64  83 S5        29.95S
OSAGE BEACH    PTCLDY    68  64  88 SE5       30.00S

$$
MOZ051-052-059>065-031200-
...EAST CENTRAL MISSOURI...

CITY           SKY/WX    TMP DP  RH WIND       PRES   REMARKS
ST LOUIS INTL  PTCLDY    77  68  73 CALM      30.00S
SPIRIT OF STL  PTCLDY    69  69 100 CALM      29.99R
ST CHARLES     PTCLDY    71  70  96 E3        29.99R

$$
MOZ072>076-082>087-097>100-106>115-031200-
...SOUTH CENTRAL AND SOUTHEAST MISSOURI...

CITY           SKY/WX    TMP DP  RH WIND       PRES   REMARKS
CAPE GIRARDEAU CLEAR     66  65  96 CALM      30.02R FOG
FARMINGTON     CLEAR     66  64  94 CALM      30.05S
POPLAR BLUFF   PTCLDY    67  66  97 CALM      30.01R FOG
WEST PLAINS    CLEAR     65  62  90 CALM      30.06R FOG

$$


USA.gov is the U.S. government's official web portal to all federal, state and local government web resources and services.